Theta_e
339 339 340 338 336 335 334 333 331 331 330 328 326 324 323 325 325 326 325 326 329 331 330 330 330 330 329 329 329 329 329 330 331 332 332 333 334 336 336 336 337 335 333 332 333 334 334 334 334 333 332 330 329 329 329 330 329 329 330 330 328 327 329 330 331 331 331 331 331 331 331 331 332 331 331 330 330 330 330 331 331 331 331 332 332
339 339 338 337 337 336 333 332 332 330 329 328 326 325 324 325 326 326 326 327 329 331 330 330 330 330 329 329 329 330 330 331 332 332 331 332 334 336 336 337 338 338 337 334 334 335 334 334 333 330 329 331 331 330 330 329 328 328 329 329 329 329 329 330 330 330 329 329 329 329 329 330 330 330 329 329 329 330 330 330 330 330 330 330 330
339 338 337 336 336 335 333 332 331 330 329 328 327 326 324 325 326 325 325 327 328 330 330 330 330 330 331 329 329 330 331 332 332 332 331 331 332 335 335 334 336 337 338 337 335 334 332 332 332 332 332 332 330 331 331 329 328 329 328 328 327 326 327 327 328 328 328 328 328 328 328 328 328 328 328 328 328 328 328 328 329 328 329 329 329
338 338 337 336 335 335 334 332 331 331 330 328 328 328 326 327 327 326 327 328 328 329 330 330 329 330 330 329 330 331 332 332 332 331 331 331 331 332 335 338 337 338 338 337 337 334 332 332 331 332 333 333 331 329 328 329 329 328 328 328 327 327 327 328 328 328 327 327 328 327 327 327 327 327 326 326 326 327 327 327 327 327 328 328 328
336 337 337 335 335 334 333 332 332 331 330 328 329 328 330 327 327 328 328 329 329 328 330 330 330 329 330 330 331 331 332 332 332 331 331 330 331 332 333 336 337 337 336 335 337 336 333 333 333 334 333 331 330 331 330 328 327 329 328 328 327 326 326 326 326 326 326 326 326 326 326 326 326 325 325 326 325 326 326 326 326 326 327 326 326
336 336 336 334 333 333 333 332 331 330 329 328 329 329 328 327 327 329 330 328 327 328 329 329 331 331 330 330 331 332 333 331 331 330 330 330 330 331 331 332 332 333 334 333 337 337 337 334 335 334 331 330 331 332 330 329 329 329 329 327 326 325 325 326 327 326 326 325 325 326 326 326 325 325 325 325 325 325 325 326 325 325 326 326 326
336 336 333 333 332 331 331 332 330 330 330 329 329 329 328 327 328 327 326 327 328 329 330 330 331 330 331 331 331 332 332 330 330 330 330 330 331 330 330 331 331 332 333 334 339 338 337 336 333 332 332 332 331 328 329 330 329 328 327 328 326 324 325 325 325 326 326 326 326 325 325 325 325 325 325 325 325 325 325 325 326 326 327 328 328
335 335 335 332 332 331 331 331 331 330 330 330 330 329 327 327 328 328 326 327 328 328 331 331 332 331 331 332 332 332 331 330 330 330 329 330 330 330 330 330 330 334 336 332 334 336 336 335 335 335 332 331 330 329 329 330 329 328 328 326 325 325 325 326 325 325 325 325 325 325 325 325 325 325 325 325 325 325 326 327 327 326 326 327 328
335 334 334 332 332 331 330 331 332 331 331 330 330 329 328 327 327 329 329 327 328 328 330 331 331 331 331 331 332 332 331 329 329 329 329 330 329 329 330 330 334 337 331 332 332 335 336 335 333 335 335 332 332 330 329 328 328 328 328 328 326 325 325 326 326 326 326 326 325 326 326 325 325 326 326 325 326 326 327 326 326 326 326 327 327
334 334 333 333 332 330 330 331 331 331 331 330 329 329 328 328 326 326 329 329 328 328 329 331 332 331 331 331 331 331 331 330 330 330 329 329 329 329 330 331 331 330 330 331 332 333 335 336 335 336 336 336 333 331 330 328 328 328 329 327 326 326 327 326 326 325 326 325 325 326 325 325 326 327 327 327 327 327 327 327 326 327 328 328 328
334 334 332 333 331 331 331 331 332 331 330 329 328 328 328 327 328 326 328 330 330 330 330 331 331 331 331 331 332 331 331 331 330 329 329 328 330 330 330 330 331 330 330 330 330 332 332 332 332 332 335 335 335 335 332 330 329 328 329 329 329 327 326 327 326 326 326 326 325 325 325 326 327 328 327 328 328 328 328 327 328 328 328 328 328
332 333 332 332 331 331 331 331 331 331 329 328 327 327 327 327 327 327 328 330 332 332 332 331 330 329 328 329 330 330 330 330 329 329 329 330 331 329 328 329 329 330 330 330 330 331 331 332 334 332 334 333 333 334 335 332 333 330 329 329 328 329 328 328 327 326 326 325 325 326 326 327 327 328 329 329 328 328 328 328 328 329 329 329 329
334 332 331 333 332 331 331 330 331 331 330 329 328 328 329 328 327 329 328 328 328 331 331 332 328 326 327 327 327 330 330 329 327 327 328 329 330 330 328 328 328 329 328 329 330 330 330 331 331 331 332 333 332 332 333 334 334 331 330 328 327 328 328 328 329 328 325 325 325 326 326 327 328 328 328 328 329 328 327 327 328 328 329 329 329
333 332 332 332 331 331 331 330 331 331 330 330 329 330 329 328 327 326 329 328 327 330 330 330 325 324 322 322 324 327 328 328 328 329 328 329 329 329 329 328 328 327 328 329 329 329 329 329 329 330 330 331 331 332 334 334 333 333 331 331 329 326 328 328 329 327 326 325 325 326 327 328 327 328 328 327 327 327 327 327 327 328 329 329 329
333 333 333 332 331 331 331 331 330 331 329 329 329 328 328 328 327 326 325 327 328 330 329 328 324 326 325 322 318 318 322 325 328 329 329 329 330 329 329 328 327 326 328 328 328 329 329 329 329 329 329 330 331 332 333 333 333 333 333 332 331 328 327 328 329 328 327 326 327 327 327 328 327 327 327 327 327 327 327 327 328 329 329 328 327
333 333 333 332 331 331 331 330 330 331 330 329 328 327 328 327 327 327 327 324 326 327 329 326 328 324 318 319 319 319 315 318 322 325 330 329 330 329 329 329 329 328 329 328 327 326 328 329 329 329 329 328 330 331 332 332 333 332 330 333 333 331 328 328 329 328 327 327 328 328 328 327 327 327 329 330 329 328 328 328 328 329 328 327 325
333 333 333 331 331 331 331 330 329 330 330 329 328 328 328 328 327 326 327 326 325 326 327 327 328 328 322 318 316 316 316 319 321 322 327 327 328 329 329 329 328 327 328 327 326 326 327 328 328 328 328 328 329 329 331 332 332 335 333 332 332 333 331 328 329 329 329 328 329 330 329 329 329 330 330 330 330 329 329 330 329 329 327 325 324
333 333 333 332 331 331 330 329 329 330 330 329 329 328 328 327 327 327 327 328 327 326 324 327 328 327 323 321 322 318 316 320 319 313 324 327 327 328 329 329 328 327 326 326 327 327 328 329 328 328 328 328 329 329 329 329 332 332 333 333 330 330 328 330 329 331 333 331 330 331 331 331 330 330 331 330 330 330 330 329 330 328 327 325 324
331 333 332 333 331 330 330 330 330 329 330 329 328 328 328 328 328 327 327 327 328 325 324 324 326 325 326 324 324 320 323 321 316 317 315 321 325 325 326 328 327 327 326 326 327 327 329 329 329 328 328 328 328 329 329 329 332 331 332 331 328 327 324 323 328 330 332 332 332 330 330 331 331 331 330 330 330 329 328 328 329 327 325 323 322
331 332 332 332 331 330 330 329 328 329 330 328 328 328 328 328 328 327 326 327 328 326 325 325 323 323 324 323 322 322 322 320 322 319 318 316 318 324 326 326 326 327 328 327 327 327 328 328 328 328 328 327 328 328 328 329 330 331 332 328 326 327 323 323 321 320 327 331 330 332 331 331 331 331 330 329 328 328 327 327 327 326 324 323 322
332 332 332 332 331 330 329 329 328 328 330 328 328 328 328 327 326 325 326 326 327 326 326 324 325 323 321 319 320 320 320 320 321 319 319 316 316 319 320 324 325 326 327 328 327 327 328 328 330 329 327 326 326 327 328 328 327 328 328 325 326 325 324 322 318 319 319 328 330 330 330 330 330 331 330 328 328 327 326 325 325 324 324 322 321
331 332 331 331 331 330 329 329 328 329 329 328 328 328 327 327 327 326 326 326 326 326 326 325 325 323 324 320 318 318 318 319 319 318 318 318 316 317 320 319 319 322 326 325 325 325 325 327 329 328 327 327 326 327 326 326 326 326 324 323 326 326 325 323 318 316 314 323 326 327 329 330 331 331 329 328 328 327 325 325 324 323 323 321 321
330 330 330 330 330 331 330 329 329 330 329 328 328 328 327 327 327 327 326 326 326 326 325 325 324 324 323 322 322 321 320 317 318 318 317 316 318 318 319 321 321 319 323 325 325 324 325 326 327 327 326 326 325 325 325 325 325 323 322 323 324 326 325 321 317 311 315 324 328 328 330 331 329 330 328 327 327 326 326 325 324 323 322 321 321
328 328 328 330 330 330 330 329 329 329 329 329 328 328 328 327 327 326 326 326 326 326 325 324 324 323 323 322 322 322 320 320 321 321 319 319 320 318 318 321 321 322 323 325 326 325 326 326 325 325 326 326 326 324 325 325 326 324 324 323 323 323 323 325 316 314 315 323 325 326 329 330 330 328 327 326 326 326 326 325 323 322 321 321 321
325 326 327 329 329 328 328 328 328 329 329 329 329 329 328 327 327 326 326 325 326 326 325 324 324 323 324 322 323 322 321 320 322 321 320 321 321 318 320 322 318 319 322 324 322 325 326 326 325 325 325 325 324 325 325 325 326 323 322 323 320 317 318 322 321 315 313 315 319 324 327 328 328 327 326 325 325 325 325 322 320 317 317 320 319
325 325 327 328 328 329 329 329 329 329 329 329 329 329 328 327 327 326 326 326 326 326 326 325 324 325 325 322 322 322 320 321 322 322 321 321 320 319 319 319 321 319 321 321 323 322 322 323 323 323 322 322 322 322 324 325 325 322 322 325 321 317 316 317 322 320 314 313 313 314 317 322 324 324 323 325 323 317 314 314 312 311 311 313 318
325 326 326 328 328 327 328 328 327 327 327 327 327 328 328 328 327 327 326 326 326 326 325 324 323 323 323 324 322 321 321 321 322 322 323 323 321 321 320 316 317 319 318 320 321 321 321 321 322 321 320 319 320 321 323 324 324 320 319 324 324 315 314 315 319 319 315 313 311 312 313 314 314 314 314 313 312 315 318 316 313 311 310 313 317
324 325 326 327 326 326 327 326 325 325 325 326 327 327 327 326 325 324 324 325 325 325 324 323 324 323 323 322 322 322 321 322 322 323 323 323 323 323 322 320 316 313 317 316 318 318 322 320 319 319 318 319 319 320 322 321 322 319 321 320 320 319 313 313 315 314 314 314 312 311 311 310 311 310 312 315 317 318 318 317 314 312 312 316 319
324 325 325 326 326 325 326 325 324 325 326 326 326 327 326 326 325 324 324 324 325 324 322 323 323 322 322 322 323 321 321 322 322 322 323 323 324 324 324 321 320 316 313 312 314 316 318 318 319 317 318 318 318 319 320 319 317 317 316 316 316 318 313 312 311 313 313 309 309 309 310 310 311 313 315 319 320 319 317 315 313 312 315 318 317
325 325 325 325 325 328 324 324 323 323 325 325 325 324 325 324 324 324 324 324 323 322 323 323 322 322 321 321 321 321 321 322 322 322 323 323 323 324 323 323 322 318 316 313 314 318 318 317 315 316 315 316 317 317 317 315 313 314 314 313 314 315 310 310 309 311 309 308 306 306 309 310 311 314 318 320 318 316 313 313 312 313 318 319 316
325 324 323 324 323 323 323 322 322 322 322 323 323 323 324 322 322 322 321 323 323 322 322 323 321 322 322 321 320 321 321 322 321 322 323 323 323 323 322 322 321 319 318 315 313 316 319 318 316 315 315 315 317 316 314 313 313 312 312 313 313 311 311 311 309 308 308 308 306 307 313 313 311 312 316 318 317 315 313 315 316 316 319 318 312
323 323 323 322 321 320 320 321 321 321 322 322 322 322 321 322 322 322 321 322 322 322 320 320 323 322 322 321 321 321 321 321 321 321 322 322 323 323 322 321 319 318 318 313 313 315 315 318 315 315 315 315 316 315 313 312 310 310 311 311 312 311 312 312 307 306 306 306 306 310 317 316 314 315 316 316 317 315 315 315 315 316 317 312 309
321 321 321 320 319 319 319 320 320 320 320 320 320 321 321 320 320 321 320 322 322 320 321 321 323 322 322 322 321 320 321 321 320 320 321 321 321 322 322 321 319 318 318 315 314 313 314 312 314 314 314 315 314 314 313 312 310 310 309 309 310 311 310 311 311 305 304 304 304 306 308 308 312 317 313 309 312 312 309 309 309 309 312 310 307
322 321 321 320 318 318 319 319 318 319 320 320 319 320 320 319 318 320 320 320 320 319 321 321 320 322 321 321 320 319 321 320 320 321 321 321 321 321 320 320 318 318 319 316 313 314 314 312 312 313 313 315 314 313 317 314 311 309 309 309 308 307 308 308 309 309 303 304 303 304 305 305 306 308 306 304 305 306 306 306 307 307 308 305 303
321 321 320 319 318 319 318 317 318 318 319 319 318 319 319 319 319 318 319 319 319 319 320 321 321 321 320 320 319 319 320 319 319 321 320 321 322 321 320 319 319 318 318 317 315 313 313 312 311 312 313 313 315 312 312 312 311 308 309 309 308 307 307 307 307 306 303 302 302 303 304 304 305 305 305 304 304 304 303 304 305 305 304 303 301
320 320 320 319 318 318 317 316 317 317 317 317 317 318 318 318 318 317 316 317 318 319 320 319 320 321 321 319 319 319 319 318 317 318 319 320 321 321 319 318 319 317 318 316 318 314 313 313 309 312 312 313 312 310 311 310 309 307 308 307 305 306 306 305 306 306 304 302 301 303 304 305 304 304 304 304 304 303 303 304 304 304 303 302 301
320 319 319 319 318 318 317 316 316 317 317 317 316 315 315 316 316 315 315 316 316 317 318 318 322 320 320 320 319 319 318 318 316 317 316 318 318 319 320 318 318 318 317 317 316 314 314 314 311 310 311 312 309 309 311 310 307 306 305 306 307 306 306 306 304 304 303 302 303 303 303 304 304 304 304 304 303 303 302 303 304 304 303 302 302
317 319 318 318 318 317 316 316 316 317 316 316 316 315 314 313 313 313 313 313 314 315 316 318 319 319 319 319 319 318 318 319 317 316 314 315 314 316 317 317 317 317 316 315 315 314 315 314 312 308 309 310 307 308 310 311 310 308 307 306 304 304 305 307 306 304 305 305 306 306 303 303 303 303 303 304 304 302 302 303 303 304 303 302 301
318 317 317 318 317 317 316 315 315 315 315 314 313 312 312 311 311 311 311 313 314 315 315 316 316 317 318 318 318 318 319 318 316 314 313 313 313 313 315 316 315 316 314 314 313 313 313 311 309 309 309 308 309 308 306 310 309 309 310 308 307 306 304 305 307 306 305 305 304 302 304 304 304 305 304 304 304 303 303 302 302 303 302 301 300
319 318 317 315 314 314 313 312 312 313 312 311 310 311 311 311 311 311 313 314 313 313 313 313 313 314 314 315 315 316 315 315 315 314 315 313 313 313 312 313 313 313 312 311 311 311 311 311 310 308 307 308 305 305 306 307 307 306 306 308 307 307 306 305 305 306 306 306 306 304 303 303 303 303 302 302 303 302 302 302 303 304 303 301 300
317 317 316 314 312 310 309 309 309 309 310 309 310 311 312 311 312 313 314 314 313 312 312 313 313 314 314 315 316 317 319 316 311 312 313 313 314 313 311 311 311 311 309 310 310 310 309 309 307 305 306 306 305 305 304 305 306 308 307 306 306 306 305 304 305 304 305 305 305 304 303 305 304 305 305 306 306 304 304 304 304 304 303 301 299
315 314 313 312 311 310 308 307 307 307 307 307 305 302 308 313 314 314 314 313 314 314 314 314 314 315 315 316 316 314 312 310 305 300 299 303 308 312 313 312 311 310 309 309 309 309 309 308 308 305 305 305 304 305 306 305 306 305 304 304 304 304 304 304 305 305 305 304 304 304 304 305 305 304 304 304 306 308 307 306 306 305 303 300 300
313 313 311 310 308 308 307 306 305 305 304 304 298 294 298 305 314 314 314 314 315 315 314 314 314 315 316 316 316 316 314 312 306 298 297 297 297 298 300 303 307 312 310 308 308 308 308 309 306 304 307 306 304 304 305 306 305 307 306 304 305 304 304 303 304 306 306 305 304 304 305 307 305 303 304 304 305 307 306 306 302 301 301 300 300
311 310 308 307 306 306 305 305 304 304 303 299 297 297 299 302 307 314 315 315 315 315 315 315 315 315 316 316 317 318 319 317 314 312 307 299 297 297 296 295 294 293 297 309 309 307 308 308 306 306 305 306 306 304 305 304 306 306 306 305 305 304 304 303 303 303 307 304 305 303 305 306 305 304 305 305 306 307 306 303 300 300 300 300 300
309 308 306 306 305 305 305 305 304 304 303 295 297 298 299 300 303 310 315 315 315 315 314 314 314 314 313 312 312 312 312 314 315 314 314 311 302 301 303 303 299 296 292 291 295 309 312 310 309 306 307 307 309 308 307 307 307 307 306 305 304 304 304 303 303 304 307 306 305 304 303 306 305 304 304 306 309 307 307 301 300 300 300 300 300
306 305 304 304 304 304 304 304 303 302 301 296 297 298 300 300 302 307 315 315 314 313 313 313 313 313 313 312 311 309 307 307 307 310 314 313 313 313 313 311 310 307 300 297 297 297 303 310 310 310 309 309 310 309 311 310 312 309 307 306 305 305 304 304 307 307 307 305 306 306 304 306 305 304 303 306 308 307 307 303 300 299 299 299 299
304 303 303 303 303 303 303 303 302 300 300 294 296 298 299 301 302 306 314 314 313 312 312 313 313 313 311 310 309 307 306 304 301 300 312 311 312 312 310 309 309 308 307 307 305 304 306 307 309 310 309 309 309 309 309 310 312 313 313 313 313 312 310 310 311 310 310 307 308 306 304 307 306 307 306 307 308 309 308 303 299 299 298 299 298
303 303 302 302 301 301 301 301 301 300 298 293 294 295 297 299 303 313 313 312 310 309 309 309 309 309 309 308 306 305 304 302 298 293 299 310 314 313 311 310 309 308 307 304 297 297 300 302 305 307 307 306 301 305 304 307 308 308 309 311 312 311 310 310 310 307 308 309 308 308 305 306 306 308 309 305 308 305 304 304 299 299 299 299 298
300 300 300 300 300 300 301 301 300 299 298 295 293 294 296 298 306 312 310 308 307 305 304 305 305 306 305 304 304 303 301 300 294 294 299 306 312 311 310 308 307 307 306 306 301 297 295 294 294 293 293 292 293 293 293 295 303 307 311 310 308 307 307 307 306 305 308 304 304 306 306 306 306 307 307 306 303 301 300 300 300 298 298 298 298
298 298 299 299 299 300 299 299 299 299 297 295 293 296 298 298 303 309 308 305 303 302 301 301 301 301 303 305 304 301 300 298 293 294 298 307 311 310 309 307 306 305 304 304 306 305 299 297 296 294 295 295 294 294 294 295 296 301 312 310 309 307 307 306 306 306 306 303 304 304 306 306 305 305 307 306 304 301 300 299 299 299 298 297 297
298 299 299 297 297 298 298 299 300 298 297 296 293 294 297 299 303 306 304 302 300 300 300 299 300 299 299 298 297 297 297 295 292 293 296 305 308 308 307 305 303 303 302 302 302 303 304 305 305 306 305 302 304 302 300 295 296 301 307 309 307 307 307 306 305 304 305 303 302 304 307 307 306 305 304 307 306 301 299 299 298 299 299 298 298
Wind_Speed
5 5 5 3 3 4 4 4 2 2 2 3 2 2 3 4 4 5 5 5 5 6 5 5 5 5 6 6 5 5 4 4 4 3 3 3 3 5 9 10 7 7 7 5 7 7 7 7 8 9 10 9 8 8 9 10 10 10 11 11 9 8 8 9 11 11 11 12 12 12 12 12 12 12 12 12 12 13 13 13 14 15 15 15 16
5 5 5 3 3 4 3 4 3 2 2 3 2 2 3 4 4 5 5 5 5 5 5 5 5 5 5 6 5 5 4 4 4 4 3 3 3 4 9 7 5 5 7 6 7 7 7 8 8 8 7 8 9 8 9 10 9 10 10 11 10 8 9 10 10 11 10 11 10 10 10 10 11 11 11 11 11 12 13 13 13 13 14 15 14
5 5 6 3 3 4 4 3 3 3 2 2 2 2 2 3 4 5 5 5 5 4 5 5 5 5 5 5 5 4 4 3 4 4 4 4 3 4 5 8 5 4 3 4 5 6 6 6 6 7 7 8 7 8 9 9 9 9 9 9 9 8 8 8 9 9 9 9 9 9 9 10 10 10 11 11 11 12 12 12 12 12 13 14 14
6 6 6 5 5 5 4 4 4 3 2 2 2 1 3 3 4 5 5 5 5 4 4 5 5 5 5 5 5 5 4 4 4 4 4 4 4 4 4 4 4 4 4 3 4 5 6 6 5 7 7 7 7 7 7 8 9 9 9 10 9 9 8 9 9 9 9 9 9 9 9 9 9 10 10 11 11 12 13 12 12 12 13 13 15
6 6 6 5 5 5 5 5 4 3 2 3 2 3 4 4 4 5 5 6 6 5 5 5 6 6 5 4 5 6 5 4 4 4 4 4 4 4 4 4 4 5 5 6 5 5 5 5 5 7 7 5 6 7 8 7 8 9 9 9 8 7 8 7 8 7 8 8 8 9 9 9 9 10 10 10 11 11 12 12 13 13 13 14 14
6 5 4 5 5 6 6 5 4 3 3 3 3 3 4 4 4 5 5 6 6 6 7 6 5 5 5 5 5 5 5 4 4 4 4 4 4 4 4 4 4 3 3 5 6 5 5 6 6 6 5 5 6 7 6 7 8 9 9 8 8 7 7 8 8 8 7 8 9 9 10 10 10 10 10 11 11 12 12 12 12 14 15 15 15
5 5 6 5 5 5 5 5 4 4 4 4 4 3 4 4 5 6 5 5 6 5 6 6 6 6 5 5 6 5 5 5 4 4 4 4 4 4 4 4 4 3 3 3 3 5 5 5 6 5 5 5 5 5 6 7 7 7 8 9 8 8 8 7 7 8 8 8 9 9 10 10 10 10 10 10 11 11 12 12 13 12 13 14 14
5 5 5 3 3 5 5 4 5 4 4 4 4 4 4 4 3 7 7 6 6 5 5 6 6 6 6 5 6 5 5 5 4 4 3 4 4 4 4 4 3 3 3 3 2 3 5 6 5 5 5 5 5 4 6 7 7 7 7 7 7 7 8 7 8 8 8 8 9 9 9 10 10 11 11 11 11 11 13 12 12 12 12 13 13
5 5 5 7 5 4 3 3 4 5 4 4 4 5 5 5 3 1 7 6 6 7 7 7 7 6 6 7 6 6 5 4 5 4 4 4 4 3 4 4 3 4 3 3 2 2 5 5 4 4 3 5 5 5 4 5 7 7 6 7 6 6 7 8 7 7 8 9 9 9 10 9 10 11 11 12 12 12 12 12 12 12 12 11 11
5 5 4 5 4 4 2 3 3 4 4 4 4 4 5 6 5 3 4 7 6 7 8 8 6 6 6 7 6 5 4 4 4 4 4 4 4 4 3 3 3 3 3 3 3 3 3 4 5 4 5 3 3 5 5 5 5 6 7 7 6 6 7 7 7 8 8 8 9 9 9 9 10 11 12 11 12 11 11 10 10 11 10 10 9
5 5 5 4 3 3 3 3 1 4 5 5 5 5 5 5 7 5 3 4 7 7 8 8 7 7 6 7 6 5 4 4 4 4 3 4 4 4 3 3 3 3 3 3 3 3 3 3 3 2 2 5 6 5 4 5 5 5 7 7 7 6 5 7 7 7 8 9 9 9 8 8 10 10 11 11 11 10 11 10 9 9 8 8 8
2 4 5 5 5 4 4 4 4 4 6 6 6 6 7 7 6 8 8 6 4 6 7 7 7 6 6 6 5 6 6 5 4 3 3 3 4 3 3 2 3 3 3 3 3 3 3 3 3 2 2 3 4 4 6 4 4 5 6 6 6 6 6 7 7 7 8 8 9 9 8 8 9 10 10 11 11 10 10 9 9 9 9 9 9
3 3 4 6 5 6 5 5 5 6 7 7 7 7 6 7 7 5 10 7 5 6 6 7 8 5 5 5 5 4 5 6 4 3 3 3 3 3 2 2 3 3 2 2 3 3 3 3 3 3 2 2 2 3 4 2 5 5 6 6 5 6 7 6 7 7 7 8 8 9 9 8 8 9 9 9 10 9 9 9 8 8 9 10 12
5 4 5 4 5 6 6 6 6 7 4 4 6 6 6 6 7 6 3 8 6 7 7 7 4 5 7 5 3 4 5 5 5 5 3 4 2 3 2 1 2 2 2 3 3 3 3 2 3 3 2 2 1 1 1 1 2 2 3 6 5 4 6 6 7 7 7 7 8 8 8 8 7 8 8 8 8 8 6 5 7 7 11 12 13
4 5 5 7 7 6 7 6 6 5 5 6 7 7 7 8 8 9 7 2 5 6 8 3 6 5 5 4 3 2 1 3 3 5 4 3 3 3 3 2 2 2 1 3 3 2 2 2 3 3 2 2 1 1 1 2 2 3 2 4 6 6 4 6 7 7 7 7 7 7 7 8 7 6 6 7 7 6 6 5 6 8 11 12 11
4 4 4 5 6 6 5 6 7 5 7 7 7 7 7 7 6 8 10 9 5 6 4 3 6 10 7 2 3 2 3 3 3 2 4 5 5 4 3 3 3 4 2 3 2 2 2 2 3 3 3 3 2 2 2 1 2 2 2 1 3 6 5 5 6 8 8 8 7 7 7 7 7 6 6 6 5 6 6 6 7 8 12 12 11
5 5 5 6 6 5 5 5 6 5 5 7 8 8 8 8 9 9 10 10 9 5 4 4 7 1 5 5 3 2 2 2 5 1 3 3 3 4 4 4 4 3 2 2 2 1 2 2 2 3 3 3 3 2 2 1 1 2 2 2 2 6 5 5 7 8 9 9 8 8 8 8 7 6 6 5 6 6 7 7 8 11 12 12 12
6 7 6 5 5 4 3 4 5 6 6 6 6 6 7 8 9 9 8 8 9 8 6 4 6 2 1 1 3 5 6 5 5 4 2 1 3 3 4 3 4 3 2 1 2 2 2 2 2 3 3 3 3 2 2 2 2 1 2 2 3 4 4 5 8 9 10 9 9 9 9 8 8 8 5 5 5 7 8 9 12 13 12 12 12
6 5 6 5 5 5 6 6 5 5 4 5 6 8 8 8 7 7 7 7 6 10 9 7 4 3 1 1 2 0 6 8 4 4 4 2 4 3 3 4 3 3 3 3 3 3 2 2 2 3 3 2 3 2 1 2 2 2 2 3 3 4 6 5 5 7 6 7 8 7 6 9 9 7 6 8 11 12 12 13 13 13 12 12 13
8 6 6 6 6 6 7 6 5 5 4 6 7 6 5 5 6 6 6 7 9 10 9 8 10 6 3 1 2 3 4 4 5 5 5 5 4 2 2 4 4 3 3 3 3 3 3 2 2 2 2 2 2 1 2 2 2 1 1 2 4 5 6 7 5 1 4 4 6 6 7 6 9 9 11 12 11 12 12 12 12 12 12 12 13
6 7 7 7 6 7 7 6 6 6 4 4 3 5 7 8 7 7 7 7 7 6 8 9 7 6 5 2 4 4 3 3 5 4 4 5 3 5 3 2 3 3 3 3 3 2 3 2 2 3 2 2 1 1 1 1 0 2 2 2 1 6 5 6 5 2 4 8 5 5 6 9 9 12 12 11 11 11 11 11 11 11 12 12 13
6 8 7 8 8 7 7 7 7 5 4 4 4 5 5 6 8 8 7 7 6 7 9 7 6 5 5 5 4 3 4 3 2 4 3 2 4 7 5 5 4 2 3 3 3 2 2 2 2 3 2 2 2 1 1 1 1 1 1 1 2 4 6 2 2 4 7 9 7 2 4 8 11 12 11 11 12 11 11 11 11 11 12 13 13
8 7 8 8 8 7 8 7 5 5 5 5 6 6 6 7 6 6 6 7 7 6 6 6 5 5 6 6 6 8 6 5 6 5 4 3 4 5 6 5 4 4 2 2 3 3 3 2 2 2 2 2 2 2 1 1 1 1 1 1 3 4 4 5 3 4 7 9 10 7 6 9 10 11 11 11 12 12 11 12 12 12 12 13 13
6 6 6 7 7 6 7 6 6 5 6 6 6 6 6 6 6 6 6 6 6 6 6 7 7 5 5 5 6 5 4 5 6 6 6 5 6 6 6 4 4 3 2 3 3 3 2 2 2 2 2 2 2 2 2 2 1 2 1 1 2 4 5 6 4 5 8 8 7 1 5 9 12 11 12 12 12 12 12 13 13 13 12 13 13
5 6 6 7 6 6 6 6 6 6 6 6 6 6 6 6 6 7 6 7 7 7 6 7 8 8 7 5 4 5 5 3 5 5 4 5 7 7 4 3 3 3 2 2 2 2 2 2 3 2 2 3 2 2 2 2 1 1 1 1 3 3 4 5 5 7 9 9 9 7 6 7 9 12 11 12 12 12 12 11 10 9 9 11 11
6 7 7 7 6 6 6 6 6 6 6 7 6 6 6 6 6 6 7 6 5 7 7 7 6 6 5 6 5 5 4 4 6 6 6 7 7 9 7 2 3 2 2 1 2 2 1 2 1 2 2 1 2 2 2 2 1 2 2 3 3 5 5 6 8 6 6 8 6 5 7 7 9 9 10 10 10 11 11 9 7 7 8 8 9
7 6 6 7 7 6 6 5 5 5 4 3 2 5 5 5 6 6 5 5 6 6 5 6 6 6 7 6 5 4 5 4 6 6 6 6 7 6 8 8 3 2 2 2 1 2 2 1 1 1 2 2 1 1 2 1 1 3 3 1 1 3 6 5 5 8 8 10 9 5 6 7 9 11 12 12 12 11 9 8 7 7 6 6 7
5 5 6 7 7 7 6 6 4 4 5 5 6 6 6 6 5 5 5 4 6 6 5 6 6 7 6 5 5 5 4 5 5 6 5 5 6 7 7 7 8 5 3 4 3 3 3 3 1 1 2 2 2 1 2 2 1 2 2 1 1 1 4 6 6 8 9 9 8 9 10 10 11 11 11 12 11 10 8 7 7 7 7 7 7
5 4 6 6 6 7 6 5 6 6 6 7 7 6 7 6 6 6 5 5 5 6 6 6 6 6 5 7 6 5 5 4 4 5 5 5 5 7 7 8 6 6 5 5 6 5 3 3 3 1 2 2 3 1 2 2 1 2 2 2 2 2 3 6 6 7 8 9 11 10 11 11 11 11 11 10 8 9 10 8 8 8 7 7 6
5 5 5 6 6 6 6 5 5 5 6 6 6 7 6 6 5 6 5 6 6 4 5 5 5 5 5 5 4 4 4 5 6 6 6 6 6 6 6 4 5 7 5 5 5 6 4 1 2 2 2 3 3 3 2 2 4 2 2 2 2 2 5 7 8 9 10 10 11 11 11 11 11 11 10 9 10 10 9 8 8 8 8 9 8
5 4 5 5 5 5 6 6 5 5 5 5 5 5 5 6 5 5 5 5 5 5 4 4 4 5 6 6 4 4 4 5 5 5 5 6 5 6 5 5 4 3 6 3 2 2 2 5 2 1 3 3 3 3 3 2 2 3 2 3 2 5 7 6 8 9 9 10 10 10 10 10 10 10 10 10 9 8 8 8 7 7 9 8 8
4 4 5 6 6 7 6 6 6 6 6 5 5 6 5 5 5 5 5 5 5 5 4 3 4 5 5 5 5 4 4 4 4 5 5 5 5 5 5 5 5 5 5 4 2 2 0 2 3 2 4 4 4 4 3 2 3 4 2 2 3 5 4 4 6 8 9 9 10 9 10 10 9 9 9 10 9 8 8 9 9 9 8 9 9
6 6 6 6 7 7 7 7 7 6 6 5 5 5 5 5 4 5 5 5 6 4 4 3 3 4 5 5 5 4 5 6 4 4 5 5 5 5 5 5 5 5 5 4 3 3 1 1 2 2 3 5 3 3 4 3 2 2 3 3 2 2 2 3 3 4 6 8 9 9 9 10 10 11 10 11 11 11 11 10 10 9 9 10 11
6 6 6 6 6 8 7 7 6 6 6 6 6 6 6 6 5 4 5 6 5 5 5 5 3 3 4 5 4 5 5 6 6 6 6 6 7 7 5 6 5 5 4 3 2 3 4 1 2 2 3 2 3 2 5 5 3 2 2 1 2 2 1 1 1 1 3 4 6 8 9 10 10 10 11 11 11 11 11 10 10 9 10 10 11
4 5 5 4 5 7 8 7 7 6 7 7 6 6 6 7 7 5 5 6 6 6 6 5 4 4 4 4 4 4 4 6 5 5 6 6 6 7 6 5 6 5 5 3 4 3 6 4 2 3 3 3 2 4 3 2 2 2 3 1 1 0 1 1 1 1 3 5 6 7 8 9 10 10 11 11 11 11 10 10 10 9 10 11 11
5 3 4 4 5 6 8 7 7 7 6 6 6 6 7 7 7 7 6 6 6 6 6 6 5 5 5 5 5 5 5 6 5 5 5 5 7 6 6 6 6 6 5 4 3 4 4 5 4 4 3 4 2 2 3 3 3 2 2 1 0 1 1 1 1 2 2 5 6 8 8 9 10 10 10 10 10 10 10 10 10 10 10 10 10
5 4 3 2 5 6 7 7 6 6 6 7 6 6 5 5 7 7 7 6 6 5 5 5 4 5 6 6 6 5 6 6 5 5 5 7 6 6 7 6 6 5 4 5 4 4 5 5 4 1 2 2 1 2 4 4 2 1 1 2 2 2 2 2 1 1 2 3 6 7 7 8 9 9 9 9 9 10 9 9 9 10 10 10 10
3 2 2 3 4 6 7 7 6 6 6 6 6 7 6 6 5 5 5 5 5 5 5 5 5 5 6 6 6 7 6 7 6 5 4 5 5 6 6 5 5 5 5 4 3 3 4 3 5 4 2 4 2 2 3 3 4 3 2 2 1 1 2 3 2 2 2 2 3 4 6 7 8 9 9 9 9 9 8 9 9 10 10 10 10
6 3 1 2 1 5 5 6 6 6 6 5 5 5 5 5 5 6 6 6 6 5 5 5 5 4 4 6 7 6 6 5 6 6 5 5 4 5 5 5 5 6 5 5 4 3 4 4 1 1 3 1 1 3 2 3 3 3 4 2 4 2 2 3 4 2 3 3 5 7 7 6 7 8 9 10 9 9 10 10 10 11 11 11 11
6 7 2 2 3 5 5 5 5 4 5 5 5 5 5 5 6 6 6 7 7 6 6 5 5 5 5 5 4 3 3 3 5 6 6 5 3 3 2 5 5 6 5 5 5 4 4 4 2 3 2 2 2 2 2 3 2 2 3 4 6 5 3 3 4 4 2 3 5 4 5 7 8 10 10 10 11 12 12 11 11 12 14 13 12
3 1 4 4 7 7 6 6 6 5 5 5 4 5 6 6 5 7 7 7 8 8 7 7 6 7 6 6 5 4 5 7 8 5 4 3 4 5 3 4 5 6 5 5 5 4 3 4 3 2 3 3 3 4 4 5 6 4 3 4 5 3 2 3 3 4 5 5 4 4 5 6 5 6 5 6 8 11 10 13 11 14 14 12 12
4 4 4 5 6 7 7 6 5 5 4 3 3 2 3 7 7 7 6 6 8 9 9 9 8 8 7 7 7 11 9 10 11 10 10 8 8 5 4 3 5 6 6 6 5 5 5 5 5 5 5 5 5 6 6 4 2 3 3 4 5 3 2 4 5 4 5 5 4 6 5 3 5 5 4 8 7 7 6 6 9 9 10 13 13
6 5 4 7 7 6 6 6 6 5 3 2 3 3 6 10 9 8 8 7 7 8 8 10 9 8 6 6 4 6 7 7 8 10 10 11 12 12 12 10 6 3 5 5 5 5 5 5 3 4 5 5 5 5 6 4 3 5 5 4 3 1 2 3 6 2 1 5 3 3 5 3 5 6 6 7 7 3 3 5 5 5 8 9 10
5 4 6 7 7 6 5 6 6 4 3 6 3 6 9 10 10 9 8 7 7 7 8 9 7 7 7 7 5 5 7 7 6 7 9 10 11 12 13 13 13 11 7 3 4 2 4 4 4 4 3 4 2 4 3 3 4 3 2 3 4 4 3 4 3 4 1 2 3 2 6 2 4 5 6 6 2 1 2 6 8 10 12 13 14
5 6 6 7 7 6 6 7 6 5 5 8 3 9 12 13 14 12 7 8 9 8 8 8 7 6 7 7 6 5 5 9 6 5 5 7 8 11 12 12 13 12 11 10 7 2 4 3 4 3 3 2 2 2 2 2 1 3 3 3 3 3 3 3 5 3 1 3 3 2 6 3 4 4 5 6 3 1 3 3 9 12 13 13 12
6 7 7 9 7 8 7 7 6 7 7 9 5 8 13 14 15 12 9 9 9 8 7 7 7 7 7 7 6 5 5 6 5 5 4 5 5 7 8 7 6 8 10 11 10 10 6 4 5 4 1 2 3 1 1 2 2 1 1 2 2 3 3 5 4 4 3 4 5 2 3 6 3 3 5 2 3 5 6 7 8 6 8 10 12
6 6 8 8 8 7 8 7 6 8 8 11 10 8 8 14 15 12 9 9 9 9 8 8 7 6 5 5 7 7 4 4 3 3 3 5 6 6 7 6 7 7 8 8 7 5 5 4 4 5 3 2 3 3 1 1 3 3 3 1 2 2 2 1 2 0 2 2 2 4 4 5 1 1 4 2 1 1 1 3 4 5 7 9 10
5 7 8 8 8 8 7 8 8 9 9 13 11 11 10 7 10 9 8 9 9 8 8 8 7 7 7 7 7 6 6 5 4 2 1 1 6 8 8 6 6 6 6 5 4 3 3 3 3 3 2 2 1 4 4 4 3 2 2 2 3 2 2 2 2 3 2 2 0 2 1 3 2 1 2 3 2 4 4 4 6 4 6 8 10
7 7 10 8 6 6 7 7 9 8 9 12 12 11 11 12 6 7 9 8 7 8 6 5 6 5 6 6 5 6 6 6 5 6 6 6 6 7 6 6 5 6 5 5 5 7 7 5 5 4 4 4 5 5 4 3 3 3 5 4 3 1 4 2 2 2 1 2 3 1 1 2 2 1 3 1 2 3 4 5 5 7 7 4 5
8 6 10 8 8 8 8 9 7 9 8 11 13 12 14 15 10 6 5 6 8 7 6 6 6 7 8 12 8 6 6 5 6 9 7 7 7 6 6 6 5 6 6 6 4 5 7 6 9 7 8 8 8 9 8 7 5 2 2 3 3 2 2 2 1 2 2 3 2 3 1 2 1 0 1 1 2 2 2 4 5 6 7 5 2
6 7 9 9 8 8 8 8 12 11 9 11 15 12 13 13 10 7 8 8 8 6 6 7 6 5 5 9 13 9 7 6 11 10 10 7 7 5 6 7 6 6 3 4 5 5 5 6 7 7 9 9 7 6 7 10 10 7 4 3 4 2 3 2 1 1 2 2 3 5 2 2 4 2 3 3 1 2 1 3 4 5 4 4 4
Wind_Direction
167 187 182 174 136 134 147 146 171 211 110 97 114 137 95 102 110 112 116 128 138 139 138 130 128 127 131 133 131 126 119 112 108 106 99 92 104 133 111 112 124 130 125 124 117 121 118 115 111 105 97 93 93 91 94 97 103 100 82 77 79 82 85 78 76 74 75 76 71 71 74 74 72 71 69 70 69 67 66 67 67 65 63 62 61
187 189 188 162 154 151 143 154 178 228 145 126 132 169 137 102 99 103 109 127 135 141 132 128 123 123 131 133 130 122 117 116 113 112 109 97 89 113 113 98 78 98 133 139 134 128 119 106 99 96 100 107 110 107 105 103 95 93 96 88 83 88 90 85 82 77 78 78 76 73 72 75 76 75 74 73 72 73 70 68 69 71 68 65 64
183 173 183 161 169 157 167 155 190 218 190 136 126 183 91 126 128 116 119 122 123 125 124 123 123 123 135 130 123 108 110 107 101 102 95 90 78 90 117 120 101 72 109 141 134 118 108 108 108 109 113 114 103 98 97 103 103 102 97 95 91 85 84 78 74 73 77 80 81 81 79 80 80 81 80 77 77 74 72 71 72 73 71 68 67
184 182 180 168 173 166 165 178 207 215 170 137 150 87 114 97 96 100 109 113 105 92 101 122 126 125 133 124 117 119 124 117 105 96 92 84 87 78 77 88 121 98 72 50 118 124 117 117 118 115 112 111 112 101 99 100 104 102 96 96 99 94 93 85 77 75 78 81 82 82 82 83 84 86 85 79 78 77 73 73 77 76 72 70 69
176 184 184 175 171 164 173 194 201 198 141 145 151 104 98 98 81 101 100 103 105 104 105 114 125 132 121 122 123 127 125 117 105 100 96 96 89 91 72 82 90 101 90 68 54 95 126 121 111 114 117 111 112 112 112 107 101 105 104 100 100 101 89 90 85 78 79 81 84 85 87 86 91 92 90 87 79 77 77 77 77 73 75 75 75
167 173 173 173 173 174 180 195 194 179 141 152 172 133 109 109 123 106 114 117 120 128 126 125 121 125 124 130 127 129 128 118 103 106 111 100 101 87 89 81 85 80 81 85 65 72 90 104 111 120 104 109 109 109 118 110 103 100 102 100 95 92 95 90 92 95 96 92 90 98 97 97 93 90 86 85 87 83 81 81 82 83 81 82 82
168 156 169 186 174 178 186 190 163 147 159 182 169 135 128 136 136 111 102 103 113 122 128 129 137 141 141 138 134 127 125 126 121 101 110 110 89 92 93 89 81 75 70 48 67 88 97 122 119 110 112 117 113 115 111 108 102 106 106 104 100 97 97 94 92 95 96 95 94 95 92 89 91 97 99 94 88 85 87 86 85 79 78 76 76
169 156 159 129 198 198 189 163 154 150 177 181 158 150 134 133 141 139 120 116 116 116 128 134 140 143 145 140 138 132 130 131 127 118 116 101 100 103 98 95 86 103 90 72 71 104 95 83 85 112 125 130 124 118 109 114 115 110 105 104 108 103 102 110 104 98 97 104 106 92 89 96 100 98 96 97 93 89 84 84 84 82 79 77 77
181 161 144 155 203 204 169 157 150 163 178 179 170 152 142 133 121 152 135 132 127 129 135 136 139 147 146 147 146 137 134 137 139 133 124 115 123 111 104 108 127 108 88 93 80 83 111 102 89 75 88 115 131 125 117 113 115 114 112 112 105 113 115 111 109 111 111 102 96 96 97 96 98 100 101 100 96 90 85 84 86 84 80 76 76
176 161 154 158 172 203 149 126 150 166 170 164 163 141 138 140 126 82 134 131 138 141 141 136 138 143 144 143 143 132 129 135 141 138 135 136 128 128 125 115 110 120 108 105 96 93 81 97 86 88 72 62 124 140 142 123 109 120 120 109 113 114 118 113 106 104 100 101 100 99 102 103 105 104 102 101 99 95 88 86 84 84 79 74 68
168 158 152 153 156 190 177 96 135 187 160 152 147 140 137 146 137 114 81 115 138 142 139 136 130 134 140 141 139 127 123 125 125 135 146 143 137 135 136 132 124 130 131 118 115 110 108 107 111 96 78 75 57 67 122 135 127 126 129 133 132 129 114 108 113 117 107 99 105 108 112 113 107 106 105 105 103 98 97 97 93 81 69 67 72
171 164 150 148 158 182 158 119 193 205 168 160 154 154 151 136 134 128 121 113 96 126 131 125 106 103 97 91 99 119 123 113 97 98 136 131 123 124 140 131 136 141 142 133 129 129 125 118 109 97 101 67 46 60 29 121 137 142 140 135 133 123 127 120 123 119 126 128 120 118 120 118 113 114 114 113 109 110 108 101 94 85 78 73 71
192 169 152 168 165 182 158 151 193 213 184 174 158 156 154 142 134 129 129 121 121 124 128 124 116 100 101 104 101 100 108 111 113 102 98 89 130 131 112 122 128 153 156 143 133 138 139 122 111 121 110 119 115 35 44 60 147 158 150 147 124 131 130 131 133 137 136 128 126 129 127 131 127 122 121 118 121 119 114 107 98 93 79 77 81
184 164 138 138 181 182 157 161 192 217 179 138 148 143 142 137 133 112 107 137 139 148 144 132 123 142 140 124 88 86 113 127 135 140 151 139 132 134 136 135 153 150 160 146 145 145 149 136 134 116 125 125 224 132 82 105 129 214 164 165 151 126 131 142 139 140 134 137 144 140 143 139 139 134 126 120 115 114 118 106 101 97 86 87 87
200 182 153 161 192 190 170 158 186 189 149 172 155 153 157 156 155 141 134 86 125 153 157 178 137 126 101 117 146 119 154 102 110 131 140 143 157 157 168 157 195 99 153 143 146 145 145 148 143 144 155 124 182 133 178 160 170 174 34 164 181 136 153 147 148 149 152 153 154 155 160 152 150 139 138 138 137 138 137 124 117 101 98 90 88
188 177 166 176 188 190 165 153 183 203 183 160 160 161 159 160 154 150 144 141 152 163 167 174 150 143 154 207 148 115 134 213 145 117 150 156 161 161 168 173 157 138 180 138 151 139 153 163 161 165 168 175 180 178 183 169 144 136 97 147 313 157 163 166 155 162 163 167 170 170 172 166 165 161 159 144 139 144 143 138 124 108 103 96 91
179 178 178 175 188 185 173 165 179 190 198 170 163 171 172 170 163 158 165 156 160 155 178 185 181 222 136 129 86 186 217 147 133 131 159 156 165 157 176 165 157 155 144 141 117 155 151 149 164 166 178 180 180 181 191 156 133 195 143 67 2 171 179 172 165 173 175 176 181 173 176 178 177 163 138 116 126 134 144 146 129 117 106 102 97
190 184 182 172 172 177 164 172 188 190 200 180 154 153 172 170 177 169 167 172 156 160 163 209 200 119 51 13 157 176 169 168 153 192 90 142 163 165 163 151 149 152 159 182 164 186 155 155 160 177 186 179 176 185 179 179 160 130 117 119 45 188 160 185 183 187 178 176 183 184 188 176 159 139 144 150 151 143 137 133 125 117 110 105 101
201 187 178 168 162 168 181 186 195 192 196 167 165 173 174 179 162 173 175 154 159 166 169 177 180 251 147 51 70 231 147 142 171 116 158 170 162 140 141 149 146 148 155 174 181 159 152 151 158 173 192 189 167 180 183 170 154 123 126 117 121 194 158 190 221 217 161 179 185 186 179 164 147 144 141 135 129 122 119 122 122 115 113 110 107
194 191 176 175 172 176 177 175 176 198 188 184 181 170 161 164 170 167 150 167 170 170 170 174 181 186 164 191 64 100 89 69 140 157 150 160 158 112 125 150 140 151 157 162 168 174 148 144 153 154 157 153 157 166 174 159 149 122 92 110 158 187 178 186 218 346 130 191 220 171 197 164 153 146 135 127 126 124 122 123 120 117 117 114 110
200 196 188 181 180 184 182 184 188 182 170 182 195 169 171 165 162 161 170 171 176 167 165 180 187 176 142 79 87 100 84 63 121 91 138 161 171 177 146 130 129 147 154 155 168 160 159 161 181 145 138 134 140 159 152 164 78 120 114 121 151 192 184 196 205 117 139 179 212 178 191 176 160 141 137 132 129 126 125 127 127 124 119 117 114
187 192 184 188 182 177 181 194 195 166 166 183 173 178 178 177 176 176 172 163 163 166 179 176 182 149 158 144 132 117 78 80 86 107 67 112 166 181 166 162 152 135 134 161 149 122 117 145 122 112 120 122 120 129 128 121 137 106 96 265 200 179 189 177 226 133 128 111 95 321 194 209 154 142 142 140 134 129 130 129 128 129 124 120 118
191 186 180 185 187 177 182 194 184 173 164 171 192 185 183 179 177 171 169 166 172 164 155 162 161 157 160 169 162 167 165 166 180 176 142 142 131 158 170 176 144 127 101 117 123 111 110 115 125 117 107 124 116 114 123 119 120 124 155 210 213 184 180 165 211 146 143 140 142 205 246 181 166 145 146 141 136 136 137 136 134 131 129 127 125
191 173 163 179 180 176 183 180 178 182 178 177 189 186 175 170 169 175 178 178 164 159 155 162 171 168 178 178 176 174 162 160 173 170 166 155 147 154 163 142 124 111 133 105 87 92 94 106 97 117 135 135 132 118 112 116 118 129 208 207 191 189 191 194 154 165 148 133 122 16 291 215 153 145 146 145 144 145 144 139 137 136 136 136 133
194 174 171 173 167 169 176 183 187 189 181 175 184 175 168 170 173 177 176 179 178 167 167 178 173 180 190 189 169 174 182 164 143 143 105 123 137 140 137 121 121 120 117 105 84 95 105 124 123 135 151 141 135 136 131 115 122 83 234 243 180 138 127 145 166 182 157 136 140 158 109 154 151 151 147 146 150 149 143 134 130 135 142 140 138
189 190 173 159 163 184 185 192 191 180 179 181 174 171 165 168 173 175 184 189 172 176 182 176 179 187 156 161 182 176 172 165 148 138 145 137 150 151 143 93 113 127 107 135 121 139 91 79 101 125 122 109 110 117 135 141 137 175 210 228 170 146 163 187 173 173 163 133 163 166 154 195 160 151 143 131 106 99 101 108 119 129 137 142 142
195 179 162 161 160 167 180 187 184 180 144 111 162 166 162 163 176 182 174 174 173 176 176 164 172 171 173 180 171 163 168 165 159 165 161 163 153 157 146 144 124 141 151 70 79 234 155 101 124 113 104 100 82 104 122 131 179 181 194 205 130 157 168 190 177 159 184 181 193 164 146 122 106 107 108 111 116 112 112 116 118 117 116 119 118
191 169 174 161 163 168 172 178 163 118 148 171 187 168 160 155 150 151 155 149 159 174 173 169 179 178 173 155 151 178 161 166 170 164 167 152 153 157 156 155 153 166 160 188 214 221 162 180 137 111 138 129 116 116 125 121 152 159 138 106 121 151 171 169 165 151 181 175 150 145 128 122 120 122 122 123 125 126 121 128 127 124 119 109 103
170 189 173 169 165 164 166 163 151 164 168 173 194 164 152 147 152 148 151 156 158 171 163 174 176 166 160 171 178 163 165 156 152 152 150 151 163 167 168 168 160 142 164 205 224 218 199 176 189 138 146 141 126 121 113 97 85 102 95 96 78 85 144 138 134 132 135 135 133 132 130 130 131 134 135 132 127 133 139 140 136 136 134 131 116
177 183 178 170 166 162 157 157 160 158 172 171 170 144 146 143 162 144 152 151 146 142 166 161 159 156 150 149 152 154 163 162 161 158 159 162 160 171 170 154 156 141 163 184 216 203 194 209 165 152 166 140 125 103 92 84 52 77 91 91 86 96 121 121 124 123 127 128 128 131 136 139 143 144 145 144 147 145 146 149 151 154 158 151 140
172 172 159 158 154 150 153 152 155 159 153 163 137 130 130 130 133 132 136 143 139 150 159 149 152 150 156 160 154 141 159 152 146 152 155 152 158 163 157 146 134 105 164 141 158 256 158 187 187 178 144 153 135 116 106 88 70 80 90 106 109 116 117 121 128 129 132 133 134 139 144 149 152 157 160 159 156 157 160 168 170 175 174 157 152
161 160 158 156 153 146 152 151 152 155 156 151 137 127 126 137 140 135 145 140 144 155 148 136 144 155 154 157 162 147 148 129 145 153 150 149 143 148 155 136 144 150 162 135 126 153 28 185 165 137 141 135 137 127 112 101 77 70 76 76 102 115 111 119 130 139 141 145 148 153 156 153 162 168 173 172 171 171 177 180 181 186 176 159 165
154 157 155 150 149 147 144 149 152 155 151 143 138 135 134 136 140 140 145 150 151 146 136 135 132 148 157 163 157 129 148 137 146 140 142 143 131 148 160 143 159 154 165 127 130 124 79 352 134 150 141 139 118 130 129 116 110 82 68 62 55 67 99 119 126 141 153 156 161 163 162 165 172 180 180 183 183 182 183 186 185 190 172 173 177
163 163 156 157 148 142 137 139 142 144 147 150 149 144 141 138 140 146 146 145 137 146 149 149 154 147 145 144 128 130 150 137 150 156 150 147 154 157 166 170 170 172 178 123 152 140 167 165 100 80 140 180 122 161 169 167 156 114 116 87 55 49 71 39 119 139 163 173 173 173 171 177 184 193 186 191 192 189 187 190 190 190 182 182 187
171 161 154 155 147 138 129 134 140 143 150 153 157 152 153 151 149 151 152 150 149 149 159 166 163 138 127 127 138 142 141 136 158 152 152 156 156 165 167 168 178 183 190 172 135 142 157 191 142 152 176 175 155 172 172 162 121 134 146 146 135 112 73 124 196 227 193 192 194 193 190 189 198 204 197 200 200 195 195 196 196 193 192 192 194
160 154 153 157 154 142 131 131 137 138 141 148 153 158 156 154 153 154 155 157 158 161 161 164 157 161 146 132 163 159 150 136 149 154 173 156 163 169 168 178 176 182 187 195 176 138 166 152 202 178 175 167 183 123 130 118 132 146 162 151 141 225 247 215 214 245 216 212 211 210 206 205 209 217 214 210 209 206 205 205 203 203 201 199 198
161 148 136 188 161 147 137 137 137 147 156 152 147 145 151 158 154 153 160 168 168 151 149 155 156 150 153 155 165 155 148 144 160 167 166 177 168 167 180 175 183 174 172 187 184 150 147 170 142 178 137 157 109 121 157 154 133 125 109 192 212 224 248 257 263 231 255 225 230 238 236 227 225 228 231 229 225 222 218 215 215 214 210 205 202
45 65 112 215 181 147 138 141 151 157 154 158 159 158 155 147 146 144 135 117 111 118 123 122 130 136 155 157 159 158 162 164 177 168 167 184 174 176 182 181 175 164 169 179 177 147 141 135 149 139 178 166 154 118 180 172 158 175 215 232 284 224 229 265 237 218 214 209 199 224 239 247 244 244 245 242 240 237 234 228 225 223 219 214 207
104 39 339 223 271 127 126 128 141 150 149 144 143 141 140 142 140 129 115 104 101 104 101 108 107 114 139 158 166 159 174 171 152 168 165 166 189 208 191 162 165 150 160 166 161 151 140 132 98 134 143 156 135 164 148 168 158 178 191 205 255 203 202 211 249 213 202 222 222 217 222 227 234 234 238 242 245 241 236 231 227 227 224 219 211
150 145 182 185 89 81 87 93 90 112 124 115 113 114 114 129 124 112 118 118 110 95 86 81 78 87 85 80 86 129 120 141 143 151 140 141 124 125 121 147 149 148 154 153 157 156 154 147 141 156 137 142 112 47 98 138 163 230 204 191 226 220 209 212 217 224 216 207 229 221 217 222 229 236 240 244 239 235 233 230 227 226 224 219 211
21 66 133 167 112 93 75 79 80 81 95 97 101 124 124 107 111 119 123 124 121 110 97 82 70 76 71 79 74 82 88 78 74 79 85 98 139 127 139 134 136 138 136 142 149 149 142 139 133 109 126 150 172 149 160 185 203 202 165 180 245 233 219 256 235 208 213 214 216 220 227 203 220 225 220 233 234 227 233 227 232 227 226 220 215
132 132 133 102 94 101 101 84 78 78 78 85 66 97 138 135 124 116 112 119 119 117 109 98 86 81 76 70 72 74 72 72 67 65 63 61 54 65 108 116 133 132 139 141 153 165 149 171 183 155 163 192 189 195 192 203 120 122 126 159 218 223 176 253 261 217 191 203 224 242 242 173 209 239 217 237 236 198 224 200 223 221 219 217 216
126 125 130 101 94 93 97 103 89 67 39 34 3 181 141 133 124 123 121 112 108 108 106 108 106 95 85 80 84 81 82 87 87 82 81 77 81 83 77 75 66 95 137 129 160 162 169 187 155 172 195 207 215 193 206 177 191 186 193 177 210 161 232 304 290 360 188 180 208 248 269 163 182 232 234 239 247 210 238 261 313 252 240 227 225
94 99 87 89 85 74 79 71 68 58 50 8 358 149 128 123 120 117 114 112 106 98 103 101 104 106 102 83 59 53 58 61 63 67 62 62 72 80 84 79 71 60 53 123 140 130 170 152 175 201 165 220 236 195 210 171 217 211 194 184 183 199 209 232 257 268 335 181 189 229 276 124 190 222 258 254 252 123 212 228 228 215 215 213 209
76 75 83 81 75 64 65 67 57 45 40 11 75 126 120 117 117 113 102 111 107 102 98 94 98 99 94 84 70 47 37 42 53 55 71 60 53 57 61 68 70 76 72 56 38 62 138 107 155 168 202 189 185 234 218 252 159 167 156 191 193 189 202 224 236 265 304 183 190 221 278 271 146 200 238 251 89 17 285 232 219 215 212 210 204
74 95 74 73 65 65 61 62 57 41 36 15 56 117 123 121 117 109 112 104 99 95 94 97 106 112 117 118 105 71 37 37 37 38 73 85 83 63 51 50 50 45 51 55 61 56 56 91 105 89 154 159 77 8 357 169 64 59 170 227 162 184 179 222 223 215 195 180 185 186 291 273 182 167 240 291 135 206 227 228 227 211 215 214 213
58 60 78 75 69 66 60 60 63 48 35 23 52 60 104 122 113 110 108 101 98 94 87 87 93 98 93 99 104 106 93 71 37 356 89 97 93 84 75 68 61 53 46 32 22 24 49 73 95 129 124 129 131 140 135 100 142 158 187 169 179 186 203 230 286 222 190 217 163 131 239 282 77 205 266 306 25 65 346 317 303 246 221 220 217
42 80 65 70 70 69 64 68 72 53 34 29 39 46 37 31 103 108 106 102 103 98 92 94 95 96 106 109 107 112 115 89 41 63 120 151 105 99 96 89 73 64 57 56 58 37 37 34 36 47 73 59 85 121 141 154 151 153 83 76 52 73 88 20 317 334 317 26 24 160 204 279 15 281 292 53 55 60 29 20 357 313 238 221 213
50 49 74 61 58 62 62 60 72 65 46 24 38 46 43 37 30 88 102 97 94 89 79 71 72 77 81 90 102 109 87 67 15 52 92 111 87 94 94 81 67 59 40 25 48 45 46 53 40 47 66 71 72 87 98 77 103 121 123 85 62 55 85 66 316 335 318 34 44 7 196 293 4 322 311 42 61 58 20 8 354 349 328 270 219
63 44 67 57 50 57 62 60 57 71 49 23 26 50 62 56 59 54 58 85 90 86 79 63 68 62 55 60 62 68 72 64 47 63 60 86 93 100 106 96 72 53 28 11 22 39 52 56 44 55 60 66 76 66 47 35 30 329 112 114 179 118 103 120 297 258 304 35 18 333 258 244 265 115 305 194 123 68 29 21 11 10 18 25 64
68 76 68 61 45 44 47 58 57 63 54 33 23 30 67 84 85 81 73 58 47 46 64 70 63 70 58 48 52 59 74 63 59 57 54 72 86 84 98 91 81 66 20 12 24 31 38 46 32 32 36 38 50 52 44 40 32 23 18 107 151 130 131 151 170 257 81 80 359 354 322 356 357 30 360 324 44 114 49 30 28 30 37 54 78